This demonstration page uses our WeatherBlox Daily Observations layout. Learn more.

Left ArrowRight Arrow

41.12389, -100.76542

Hourly Observations for September 2, 2019

Temp ( °F °C ) Dew Point ( °F °C ) Humidity (%) Winds ( mph kmh ) Pressure ( in mb ) Visibility ( mi km ) Precip ( " mm )
12:18 am 00:18 Mostly Cloudy 72 22.2 69 20.6 91 91 SSE 7 11 29.94 1014 10 16 0.00 0.00
12:53 am 00:53 Mostly Cloudy 72 22.2 69 20.6 91 91 SSE 9 15 29.98 1015 10 16 0.00 0.00
1:53 am 01:53 Mostly Cloudy 72 22.2 69 20.6 91 91 SSE 8 13 29.96 1014 10 16 0.00 0.00
2:53 am 02:53 Cloudy 72 22.2 69 20.6 91 91 S 13 20 29.93 1014 10 16 0.00 0.00
3:53 am 03:53 Cloudy 73 22.8 69 20.6 87 87 SSE 8 13 29.93 1014 10 16 0.00 0.00
4:53 am 04:53 Cloudy 73 22.8 69 20.6 87 87 SSE 5 7 29.92 1013 10 16 0.00 0.00
5:53 am 05:53 Cloudy 72 22.2 68 20 87 87 S 5 7 29.92 1013 10 16 0.00 0.00
6:53 am 06:53 Cloudy 72 22.2 68 20 87 87 SE 3 6 29.93 1014 10 16 0.00 0.00
7:53 am 07:53 Cloudy 71 21.7 68 20 90 90 SE 6 9 29.94 1014 10 16 0.00 0.00
8:46 am 08:46 Partly Cloudy 72 22.2 68 20 87 87 S 7 11 29.89 1012 10 16 0.00 0.00
8:53 am 08:53 Partly Cloudy 73 22.8 68 20 84 84 SSE 6 9 29.94 1014 10 16 0.00 0.00
9:02 am 09:02 Mostly Cloudy 73 22.8 68 20 84 84 ESE 6 9 29.88 1012 10 16 0.00 0.00
9:15 am 09:15 Cloudy 73 22.8 68 20 84 84 S 7 11 29.88 1012 10 16 0.00 0.00
9:53 am 09:53 Mostly Cloudy 73 22.8 67 19.4 81 81 S 7 11 29.93 1013 10 16 0.00 0.00
10:35 am 10:35 Mostly Sunny 76 24.4 68 20 77 77 VRB 6 9 29.84 1010 10 16 0.00 0.00
10:53 am 10:53 Sunny 77 25 68 20 74 74 S 7 11 29.91 1013 10 16 0.00 0.00
11:53 am 11:53 Sunny 80 26.7 68 20 67 67 SSW 8 13 29.91 1013 10 16 0.00 0.00
12:53 pm 12:53 Sunny 84 28.9 68 20 59 59 S 6 9 29.88 1012 10 16 0.00 0.00
1:53 pm 13:53 Sunny 87 30.6 69 20.6 55 55 SSW 8 13 29.86 1011 10 16 0.00 0.00
2:53 pm 14:53 Sunny 90 32.2 70 21.1 52 52 SSW 10 17 29.84 1011 10 16 0.00 0.00
3:53 pm 15:53 Sunny 92 33.3 69 20.6 47 47 SSW 13 20 29.80 1009 10 16 0.00 0.00
4:53 pm 16:53 Sunny 92 33.3 70 21.1 49 49 SSW 12 19 29.79 1009 10 16 0.00 0.00
5:53 pm 17:53 Sunny 91 32.8 71 21.7 52 52 S 9 15 29.78 1008 10 16 0.00 0.00
6:53 pm 18:53 Sunny 90 32.2 74 23.3 59 59 SSE 6 9 29.76 1008 10 16 0.00 0.00
7:53 pm 19:53 Sunny 86 30 72 22.2 63 63 S 7 11 29.76 1008 10 16 0.00 0.00
8:53 pm 20:53 Clear 82 27.8 66 18.9 58 58 SSW 7 11 29.77 1008 10 16 0.00 0.00
9:53 pm 21:53 Clear 79 26.1 63 17.2 58 58 SW 8 13 29.79 1009 10 16 0.00 0.00
10:53 pm 22:53 Clear 75 23.9 63 17.2 66 66 WSW 5 7 29.81 1009 10 16 0.00 0.00
11:53 pm 23:53 Clear 70 21.1 62 16.7 76 76 Calm 29.82 1010 10 16 0.00 0.00

Powered by AerisWeather